Orange, MA

12:44 PM EDT on March 23, 2017 (GMT -0400)
Orange Municipal

Weather History for KORE - February, 2013

Change the Weather History Date:

Saturday, February 9, 2013

  Actual Average Record
Temperature  
Mean Temperature 16 °F -  
Max Temperature 21 °F 32 °F 46 °F (2005)
Min Temperature 10 °F 11 °F -2 °F (2003)
Degree Days  
Heating Degree Days 50    
Moisture  
Dew Point 10 °F    
Average Humidity 73    
Maximum Humidity 93    
Minimum Humidity 47    
Precipitation  
Precipitation 0.11 in - - ()
Sea Level Pressure  
Sea Level Pressure 29.87 in    
Wind  
Wind Speed 22 mph (NNW)    
Max Wind Speed 114 mph    
Max Gust Speed 137 mph    
Visibility 3 miles    
Events Fog , Snow    
Averages and records for this station are not official NWS values.
T = Trace of Precipitation, MM = Missing Value Source: NWS Daily Summary

Daily Weather History Graph

Daily Weather History Graph

Search for Another Location

Airport or City:

Trip Planner

Search our weather history database for the weather conditions in past years. The results will help you decide how hot, cold, wet, or windy it might be!

Date:

Astronomy

Feb. 09, 2013 Rise Set
Actual Time 6:53 AM EST 5:13 PM EST
Civil Twilight 6:24 AM EST 5:42 PM EST
Nautical Twilight 5:51 AM EST 6:16 PM EST
Astronomical Twilight 5:18 AM EST 6:49 PM EST
Moon 6:03 AM EST (2/9) 4:53 PM EST (2/9)
Length of Visible Light 11h 18m
Length of Day
10h 20m
Waning Crescent, 0% of the Moon is Illuminated
Feb 9
Waning Crescent
Feb 10
New
Feb 17
First Quarter
Feb 25
Full
Mar 4
Last Quarter

Hourly Weather History & Observations

Time (EST) Temp. Windchill Dew Point Humidity Pressure Visibility Wind Dir Wind Speed Gust Speed Precip Events Conditions
12:45 AM 17.6 °F 3.7 °F 15.8 °F 93% 29.70 in 0.5 mi North 13.8 mph 24.2 mph 0.03 in Fog Light Freezing Fog
12:52 AM 18.0 °F 3.1 °F 15.1 °F 88% 29.73 in 0.5 mi North 16.1 mph - 0.03 in Fog Light Freezing Fog
1:52 AM 18.0 °F 3.1 °F 15.1 °F 88% 29.74 in 0.8 mi North 16.1 mph 24.2 mph 0.02 in   Mist
2:28 AM 19.4 °F - 15.8 °F 86% 29.71 in 0.2 mi North - - 0.02 in Fog Light Freezing Fog
2:52 AM 19.0 °F - 16.0 °F 88% 29.73 in 0.5 mi North - - 0.03 in Fog Light Freezing Fog
3:02 AM 19.4 °F - 15.8 °F 86% 29.70 in 0.5 mi North - - 0.01 in Fog Light Freezing Fog
3:16 AM 19.4 °F - 15.8 °F 86% 29.70 in 0.5 mi North - - 0.02 in Fog Light Freezing Fog
3:52 AM 19.0 °F - 15.1 °F 85% 29.73 in 0.8 mi North - - 0.02 in   Mist
4:52 AM 18.0 °F - 14.0 °F 84% 29.75 in 0.8 mi ENE 113.9 mph 162.3 mph 0.01 in Snow Light Snow
5:09 AM 17.6 °F -2.8 °F 14.0 °F 86% 29.73 in 0.8 mi North 33.4 mph 125.4 mph 0.00 in Snow Light Snow
5:20 AM 17.6 °F 0.5 °F 14.0 °F 86% 29.73 in 0.8 mi NNE 21.9 mph 136.9 mph 0.00 in Snow Light Snow
5:48 AM 17.6 °F 1.7 °F 14.0 °F 86% 29.74 in 1.0 mi NNW 18.4 mph 28.8 mph 0.00 in Snow Light Snow
5:52 AM 18.0 °F 3.1 °F 12.9 °F 81% 29.76 in 1.0 mi NNW 16.1 mph 28.8 mph 0.00 in Snow Light Snow
6:19 AM 17.6 °F 0.9 °F 12.2 °F 79% 29.74 in 1.2 mi NNW 20.7 mph 31.1 mph 0.00 in Snow Light Snow
6:35 AM 17.6 °F 0.1 °F 12.2 °F 79% 29.75 in 1.0 mi NNW 23.0 mph 36.8 mph 0.00 in Snow Light Snow
6:47 AM 17.6 °F 0.9 °F 12.2 °F 79% 29.76 in 1.5 mi NNW 20.7 mph 35.7 mph 0.00 in Snow Light Snow
6:52 AM 17.1 °F -0.6 °F 10.9 °F 77% 29.79 in 1.8 mi NNW 23.0 mph 34.5 mph 0.00 in Snow Light Snow
7:17 AM 17.6 °F 0.1 °F 12.2 °F 79% 29.78 in 1.2 mi NNW 23.0 mph 32.2 mph 0.00 in Snow Light Snow
7:24 AM 17.6 °F 0.5 °F 10.4 °F 73% 29.78 in 1.5 mi NNW 21.9 mph 29.9 mph 0.00 in Snow Light Snow
7:39 AM 17.6 °F 1.3 °F 10.4 °F 73% 29.78 in 1.2 mi NNW 19.6 mph 31.1 mph 0.00 in Snow Light Snow
7:50 AM 17.6 °F 3.7 °F 10.4 °F 73% 29.79 in 1.0 mi North 13.8 mph 27.6 mph 0.00 in Snow Light Snow
7:52 AM 17.1 °F 0.6 °F 10.9 °F 77% 29.82 in 0.8 mi NNW 19.6 mph 31.1 mph 0.00 in Snow Light Snow
8:18 AM 17.6 °F 1.7 °F 10.4 °F 73% 29.80 in 1.0 mi North 18.4 mph 26.5 mph 0.00 in Snow Light Snow
8:43 AM 17.6 °F 2.7 °F 10.4 °F 73% 29.81 in 0.8 mi NNW 16.1 mph 29.9 mph 0.00 in Snow Light Snow
8:52 AM 17.1 °F 1.0 °F 12.0 °F 81% 29.85 in 0.8 mi North 18.4 mph 23.0 mph 0.00 in Snow Light Snow
9:20 AM 15.8 °F 1.4 °F 12.2 °F 86% 29.83 in 0.5 mi NNW 13.8 mph 21.9 mph 0.00 in Fog , Snow Snow
9:29 AM 15.8 °F -0.6 °F 10.4 °F 79% 29.83 in 0.5 mi NNW 18.4 mph 29.9 mph 0.00 in Snow Snow
9:52 AM 16.0 °F -0.9 °F 10.9 °F 81% 29.87 in 0.5 mi NNW 19.6 mph 33.4 mph 0.00 in Snow Snow
10:19 AM 15.8 °F 0.3 °F 10.4 °F 79% 29.85 in 0.8 mi NNW 16.1 mph 25.3 mph 0.00 in Snow Light Snow
10:30 AM 15.8 °F 0.3 °F 8.6 °F 73% 29.87 in 1.0 mi North 16.1 mph 27.6 mph 0.00 in Snow Light Snow
10:52 AM 16.0 °F -0.4 °F 10.0 °F 77% 29.90 in 0.8 mi North 18.4 mph 28.8 mph 0.00 in Snow Light Snow
11:24 AM 17.6 °F 3.2 °F 10.4 °F 73% 29.88 in 0.5 mi NNW 15.0 mph 24.2 mph 0.00 in Snow Snow
11:44 AM 17.6 °F 6.4 °F 10.4 °F 73% 29.88 in 1.0 mi NNW 9.2 mph 16.1 mph 0.00 in Snow Light Snow
11:52 AM 17.1 °F 3.0 °F 10.0 °F 74% 29.92 in 1.2 mi NNW 13.8 mph 21.9 mph 0.00 in Snow Light Snow
12:00 PM 17.6 °F 4.3 °F 10.4 °F 73% 29.89 in 1.5 mi North 12.7 mph 21.9 mph 0.00 in Snow Light Snow
12:12 PM 17.6 °F 4.3 °F 8.6 °F 68% 29.89 in 3.0 mi NNW 12.7 mph 26.5 mph 0.00 in Snow Light Snow
12:34 PM 19.4 °F 5.5 °F 8.6 °F 63% 29.89 in 5.0 mi North 15.0 mph 26.5 mph 0.00 in Snow Light Snow
12:52 PM 19.9 °F 2.2 °F 9.0 °F 62% 29.92 in 4.0 mi NNW 26.5 mph 36.8 mph 0.00 in   Overcast
1:44 PM 19.4 °F 0.8 °F 8.6 °F 63% 29.92 in 1.8 mi NNW 28.8 mph 39.1 mph 0.00 in Snow Blowing Snow
1:52 PM 21.0 °F 3.3 °F 8.1 °F 57% 29.95 in 1.5 mi NNW 27.6 mph 40.3 mph 0.00 in Snow Blowing Snow
2:00 PM 21.2 °F 3.9 °F 8.6 °F 58% 29.92 in 2.5 mi NNW 26.5 mph 39.1 mph N/A Snow Blowing Snow
2:24 PM 21.2 °F 5.6 °F 8.6 °F 58% 29.93 in 5.0 mi NNW 20.7 mph 33.4 mph N/A Snow Blowing Snow
2:52 PM 21.0 °F 3.6 °F 8.1 °F 57% 29.98 in 7.0 mi NW 26.5 mph 34.5 mph 0.00 in   Scattered Clouds
4:52 PM 19.0 °F 3.2 °F 3.9 °F 52% 30.06 in 10.0 mi NW 19.6 mph 29.9 mph 0.00 in   Clear
5:52 PM 17.1 °F 2.0 °F 1.9 °F 52% 30.11 in 10.0 mi NNW 16.1 mph 25.3 mph N/A   Clear
6:52 PM 16.0 °F -0.9 °F -0.9 °F 47% 30.15 in 10.0 mi NNW 19.6 mph 24.2 mph N/A   Clear
7:52 PM 14.0 °F -3.9 °F -2.0 °F 49% 30.18 in 10.0 mi NNW 20.7 mph - N/A   Clear
8:52 PM 12.9 °F -3.4 °F -0.9 °F 54% 30.21 in 10.0 mi NNW 16.1 mph 23.0 mph N/A   Clear
9:52 PM 14.0 °F -1.4 °F -0.9 °F 52% 30.23 in 10.0 mi NNW 15.0 mph 23.0 mph N/A   Clear
10:52 PM 10.0 °F 1.8 °F -2.0 °F 58% 30.25 in 10.0 mi NNW 4.6 mph - N/A   Clear
11:52 PM 12.0 °F 1.5 °F -2.9 °F 51% 30.27 in 10.0 mi NNW 6.9 mph - N/A   Clear